Flag for Canada Weather past 2 weeks in Ottawa, Ontario, Canada

Now
5 °F

Passing clouds.


Feels Like: -6 °F
Forecast: -8 / 9 °F
Wind: 6 mph from Northwest

Location: Ottawa Int'L. Ont.

Current Time: Feb 1, 2015 at 2:32:31 AM

Latest Report: Feb 1, 2015 at 2:00 AM


Visibility: 10 mi

Pressure: 30.16 "Hg

Humidity: 85%

Dew point: 1 °F

Location of OttawaLocation

Historic Weather in Ottawa — Graph

°F

Ottawa temperature yesterday

Maximum temperature yesterday: 7 °F (at 4:00 PM)
Minimum temperature yesterday: -13 °F (at 7:00 AM)
Average temperature yesterday: -2 °F

Past Weeks' High & Low Weather Summary

 TemperatureHumidityPressure
High39 °F (Jan 18, 2:00 PM)100% (Jan 19, 12:00 AM)30.43 "Hg (Jan 19, 12:00 AM)
Low-15 °F (Jan 17, 6:00 AM)41% (Jan 28, 1:00 PM)29.34 "Hg (Jan 24, 11:00 PM)
Average10 °F72%30.03 "Hg
* Reported Jan 17 1:00 AM — Feb 1 1:00 AM, Ottawa, Weather by CustomWeather, © 2014

Note: Actual official high and low records may vary slightly from our data, if they occured in-between our weather recording intervals... More about our weather records

Advertising

Ottawa weather history for previous 24 hours

 ConditionsComfort  
Time TempWeatherWind HumidityBarometerVisibility
1:00 AM
Feb 1
7 °FLight snow. Overcast.6 mph85%30.15 "Hg10 mi
12:00 AM7 °FLight snow. Overcast.6 mph85%30.15 "Hg8 mi
11:00 PM
Jan 31
5 °FLight snow. Overcast.7 mph85%30.16 "Hg6 mi
10:00 PM5 °FLight snow. Partly cloudy.7 mph85%30.16 "Hg3 mi
9:00 PM5 °FLight snow. Mostly cloudy.9 mph72%30.17 "Hg8 mi
8:00 PM5 °FOvercast.8 mph60%30.20 "Hg15 mi
7:00 PM3 °FPassing clouds.7 mph60%30.21 "Hg15 mi
6:00 PM3 °FPassing clouds.3 mph55%30.21 "Hg15 mi
5:00 PM5 °FPassing clouds.3 mph51%30.20 "Hg15 mi
4:00 PM7 °FSunny.6 mph51%30.22 "Hg15 mi
3:00 PM5 °FSunny.8 mph51%30.23 "Hg15 mi
2:00 PM3 °FSunny.10 mph50%30.25 "Hg15 mi
1:00 PM1 °FSunny.13 mph50%30.28 "Hg15 mi
12:00 PM0 °FSunny.9 mph50%30.30 "Hg15 mi
11:00 AM-4 °FSunny.10 mph59%30.33 "Hg15 mi
10:00 AM-6 °FSunny.9 mph64%30.34 "Hg15 mi
9:00 AM-9 °FSunny.7 mph70%30.33 "Hg15 mi
8:00 AM-11 °FSunny.9 mph76%30.32 "Hg15 mi
7:00 AM-13 °FClear.3 mph76%30.30 "Hg15 mi
6:00 AM-11 °FClear.8 mph76%30.32 "Hg15 mi
5:00 AM-11 °FClear.9 mph76%30.32 "Hg15 mi
4:00 AM-9 °FClear.7 mph70%30.32 "Hg15 mi
3:00 AM-8 °FClear.12 mph70%30.31 "Hg15 mi
2:00 AM-6 °FClear.15 mph64%30.31 "Hg15 mi
Weather by CustomWeather, © 2014

See weather overviewHow to use our weather pages